period_start,C,m1,H,J0,J1,J2,J3,J4,J5,JA,JB,JC,JD,JJ,JK,JN,#
2017-02-24 00:00:23,0.22,0.69,0.00,18.65,21.98,26.23,14.82,46.47,1022.96,2048.97,3268.98,2933.29,3357.81,599.92,608.63,3.07,0000 0000 0000 0000 000000
2017-02-24 00:05:25,0.22,0.70,0.00,18.65,21.97,26.23,14.85,46.56,1022.96,2048.97,3264.45,2930.11,3354.19,599.93,608.58,3.12,0000 0000 0000 0000 000000
2017-02-24 00:10:26,0.22,0.71,0.00,18.65,21.97,26.21,14.83,46.58,1022.96,2048.96,3260.01,2926.95,3350.61,600.19,608.95,3.17,0000 0000 0000 0000 000000
2017-02-24 00:15:27,0.22,0.72,0.00,18.64,21.97,26.24,14.84,46.56,1022.98,2048.96,3255.50,2923.78,3347.03,599.99,608.67,3.22,0000 0000 0000 0000 000000
2017-02-24 00:20:29,0.33,0.73,0.00,18.63,21.96,26.23,14.82,46.67,1022.96,2048.99,3249.30,2919.67,3342.35,599.63,608.41,3.27,0000 0000 0000 0000 000000
2017-02-24 00:25:30,0.36,0.75,0.00,18.64,21.95,26.24,14.81,46.67,1022.96,2048.99,3241.64,2914.65,3336.72,599.78,608.48,3.32,0000 0000 0000 0000 000000
2017-02-24 00:30:32,0.29,0.77,0.00,18.66,21.94,26.21,14.75,46.77,1022.96,2048.99,3235.15,2910.31,3331.75,599.89,608.59,3.37,0000 0000 0000 0000 000000
2017-02-24 00:35:33,0.29,0.78,0.00,18.63,21.94,26.20,14.76,46.71,1022.94,2048.99,3229.03,2906.16,3327.04,599.69,608.44,3.42,0000 0000 0000 0000 000000
2017-02-24 00:40:34,0.30,0.80,0.00,18.63,21.94,26.22,14.78,46.87,1022.93,2048.99,3222.65,2901.89,3322.27,600.11,608.90,3.47,0000 0000 0000 0000 000000
2017-02-24 00:45:35,0.28,0.81,0.00,18.64,21.94,26.22,14.81,46.73,1022.93,2048.98,3216.76,2897.95,3317.70,599.99,608.74,3.52,0000 0000 0000 0000 000000
2017-02-24 00:50:36,0.28,0.83,0.00,18.63,21.94,26.22,14.84,46.67,1022.93,2048.99,3211.04,2894.05,3313.27,600.15,608.72,3.57,0000 0000 0000 0000 000000
2017-02-24 00:55:37,0.28,0.84,0.00,18.64,21.93,26.22,14.89,46.77,1022.93,2048.99,3205.22,2890.08,3308.76,600.38,609.04,3.62,0000 0000 0000 0000 000000
2017-02-24 01:00:39,0.28,0.85,0.00,18.64,21.93,26.21,14.69,46.72,1022.84,2048.99,3199.41,2886.12,3304.19,599.75,608.39,3.67,0000 0000 0000 0000 000000
2017-02-24 01:05:40,0.28,0.87,0.00,18.67,21.93,26.22,14.77,46.72,1022.51,2048.99,3193.75,2882.21,3299.70,599.77,608.19,3.72,0000 0000 0000 0000 000000
2017-02-24 01:10:41,0.23,0.88,0.00,18.67,21.92,26.21,14.82,46.89,1022.51,2048.99,3188.68,2878.82,3295.73,599.79,608.21,3.77,0000 0000 0000 0000 000000
2017-02-24 01:15:43,0.23,0.89,0.00,18.68,21.92,26.20,14.89,46.82,1022.55,2048.98,3184.06,2875.66,3291.95,600.07,608.46,3.82,0000 0000 0000 0000 000000
2017-02-24 01:20:44,0.24,0.91,0.00,18.67,21.92,26.22,14.82,46.67,1022.60,2048.98,3179.31,2872.33,3288.16,599.80,608.23,3.87,0000 0000 0000 0000 000000
2017-02-24 01:25:45,0.25,0.92,0.00,18.69,21.92,26.22,14.81,46.73,1022.68,2048.98,3174.44,2868.99,3284.24,599.97,608.33,3.92,0000 0000 0000 0000 000000
2017-02-24 01:30:47,0.24,0.93,0.00,18.70,21.92,26.23,14.84,46.71,1022.80,2048.98,3169.63,2865.63,3280.44,599.92,608.44,3.97,0000 0000 0000 0000 000000
2017-02-24 01:35:48,0.25,0.94,0.00,18.70,21.92,26.23,14.83,46.79,1022.83,2048.98,3164.62,2862.16,3276.48,600.16,608.67,4.02,0000 0000 0000 0000 000000
2017-02-24 01:40:49,0.25,0.96,0.00,18.69,21.92,26.23,14.85,47.32,1022.88,2048.98,3159.65,2858.74,3272.60,600.04,608.59,4.07,0000 0000 0000 0000 000000
2017-02-24 01:45:50,0.25,0.97,0.00,18.73,21.92,26.24,14.78,47.13,1022.71,2048.98,3154.68,2855.25,3268.63,599.96,608.31,4.12,0000 0000 0000 0000 000000
2017-02-24 01:50:51,0.24,0.98,0.00,18.73,21.92,26.23,14.86,47.10,1022.63,2048.98,3149.93,2851.93,3264.80,600.23,608.38,4.17,0000 0000 0000 0000 000000
2017-02-24 01:55:53,0.24,0.99,0.00,18.72,21.92,26.24,14.83,47.07,1022.90,2048.98,3145.14,2848.58,3261.13,600.10,608.62,4.22,0000 0000 0000 0000 000000
2017-02-24 02:00:54,0.23,1.01,0.00,18.73,21.92,26.25,14.90,47.13,1022.83,2048.97,3140.55,2845.36,3257.49,600.10,608.54,4.27,0000 0000 0000 0000 000000
2017-02-24 02:05:55,0.25,1.02,0.00,18.75,21.93,26.26,14.86,47.06,1022.69,2048.98,3135.78,2842.00,3253.64,600.22,608.49,4.32,0000 0000 0000 0000 000000
2017-02-24 02:10:57,0.26,1.03,0.00,18.74,21.94,26.27,14.94,46.96,1022.67,2048.98,3130.77,2838.38,3249.51,600.19,608.46,4.37,0000 0000 0000 0000 000000
2017-02-24 02:15:58,0.24,1.04,0.00,18.75,21.94,26.27,14.95,47.07,1022.57,2048.97,3125.91,2834.96,3245.58,600.10,608.35,4.43,0000 0000 0000 0000 000000
2017-02-24 02:21:00,0.25,1.06,0.00,18.76,21.94,26.29,14.89,46.92,1022.49,2048.97,3120.95,2831.55,3241.60,600.11,608.26,4.48,0000 0000 0000 0000 000000
2017-02-24 02:26:01,0.26,1.07,0.00,18.77,21.95,26.29,14.84,46.90,1022.49,2048.98,3115.87,2827.99,3237.55,600.22,608.33,4.53,0000 0000 0000 0000 000000
2017-02-24 02:31:02,0.25,1.08,0.00,18.78,21.96,26.28,14.80,46.79,1022.48,2048.96,3110.92,2824.55,3233.62,599.67,607.78,4.58,0000 0000 0000 0000 000000
2017-02-24 02:36:04,0.24,1.10,0.00,18.81,21.97,26.29,14.80,46.83,1022.48,2048.97,3106.20,2821.23,3229.79,599.86,607.98,4.63,0000 0000 0000 0000 000000
2017-02-24 02:41:05,0.26,1.11,0.00,18.83,21.97,26.31,14.81,46.98,1022.49,2048.99,3101.24,2817.80,3225.83,599.90,607.83,4.68,0000 0000 0000 0000 000000
2017-02-24 02:46:06,0.26,1.12,0.00,18.82,21.97,26.33,14.82,46.88,1022.49,2048.96,3095.92,2814.23,3221.64,600.38,608.45,4.73,0000 0000 0000 0000 000000
2017-02-24 02:51:07,0.31,1.14,0.00,18.82,21.99,26.34,14.76,47.05,1022.49,2048.93,3090.06,2810.25,3217.10,599.88,608.06,4.78,0000 0000 0000 0000 000000
2017-02-24 02:56:09,0.31,1.15,0.00,18.83,21.99,26.34,14.91,47.15,1022.48,2048.89,3083.89,2806.01,3212.30,600.26,608.30,4.83,0000 0000 0000 0000 000000
2017-02-24 03:01:10,0.29,1.17,0.00,18.86,21.99,26.34,14.87,47.01,1022.48,2048.83,3077.93,2801.90,3207.63,600.27,608.26,4.88,0000 0000 0000 0000 000000
2017-02-24 03:06:11,0.28,1.18,0.00,18.86,22.00,26.36,14.73,46.83,1022.48,2048.83,3072.45,2798.09,3203.21,599.79,607.79,4.93,0000 0000 0000 0000 000000
2017-02-24 03:11:12,0.25,1.20,0.00,18.86,22.02,26.37,14.83,46.91,1022.48,2048.64,3067.22,2794.34,3199.03,600.14,608.09,4.98,0000 0000 0000 0000 000000
2017-02-24 03:16:14,0.24,1.21,0.00,18.88,22.02,26.38,14.73,46.97,1022.48,2048.29,3061.93,2790.69,3194.92,599.86,607.78,5.03,0000 0000 0000 0000 000000
2017-02-24 03:21:15,0.31,1.22,0.00,18.93,22.03,26.40,14.88,47.25,1022.48,2048.14,3055.95,2786.58,3190.27,600.21,607.99,5.08,0000 0000 0000 0000 000000
2017-02-24 03:26:16,0.35,1.24,0.00,18.92,22.04,26.40,14.74,47.28,1022.48,2048.09,3049.36,2782.11,3185.20,600.07,608.00,5.13,0000 0000 0000 0000 000000
2017-02-24 03:31:17,0.39,1.26,0.00,18.96,22.04,26.41,14.85,47.31,1022.48,2048.13,3041.94,2777.11,3179.56,600.42,608.15,5.18,0000 0000 0000 0000 000000
2017-02-24 03:36:18,0.40,1.28,0.00,18.96,22.06,26.42,14.88,47.33,1022.47,2048.06,3034.14,2771.86,3173.64,600.17,607.93,5.23,0000 0000 0000 0000 000000
2017-02-24 03:41:20,0.45,1.30,0.00,18.99,22.07,26.42,14.65,47.27,1022.48,2048.03,3025.63,2766.15,3167.17,599.68,607.38,5.28,0000 0000 0000 0000 000000
2017-02-24 03:46:21,0.43,1.32,0.00,19.01,22.08,26.44,14.76,47.27,1022.48,2048.04,3017.12,2760.41,3160.65,599.92,607.46,5.33,0000 0000 0000 0000 000000
2017-02-24 03:51:22,0.33,1.34,0.00,19.02,22.09,26.45,14.82,47.29,1022.48,2048.03,3010.46,2755.84,3155.46,599.94,607.60,5.38,0000 0000 0000 0000 000000
2017-02-24 03:56:23,0.32,1.36,0.00,19.03,22.11,26.48,14.84,47.26,1022.48,2048.01,3004.40,2751.64,3150.61,599.78,607.40,5.43,0000 0000 0000 0000 000000
2017-02-24 04:01:25,0.33,1.37,0.00,19.06,22.12,26.50,14.72,47.23,1022.48,2048.00,2998.24,2747.45,3145.72,599.72,607.33,5.48,0000 0000 0000 0000 000000
2017-02-24 04:06:26,0.34,1.39,0.00,19.08,22.14,26.49,14.95,47.36,1022.48,2048.00,2991.89,2743.09,3140.71,600.56,607.88,5.53,0000 0000 0000 0000 000000
2017-02-24 04:11:27,0.36,1.41,0.00,19.11,22.14,26.52,14.81,47.38,1022.48,2047.99,2985.12,2738.44,3135.49,600.00,607.49,5.58,0000 0000 0000 0000 000000
2017-02-24 04:16:28,0.41,1.43,0.00,19.14,22.17,26.52,14.82,47.29,1022.45,2047.98,2977.57,2733.33,3129.85,600.13,607.49,5.63,0000 0000 0000 0000 000000
2017-02-24 04:21:30,0.41,1.45,0.00,19.16,22.18,26.54,14.83,47.32,1022.47,2047.96,2969.80,2728.08,3123.90,600.37,607.65,5.68,0000 0000 0000 0000 000000
2017-02-24 04:26:31,0.40,1.47,0.00,19.19,22.20,26.56,14.79,47.35,1022.47,2047.93,2962.16,2722.87,3117.99,599.94,607.18,5.73,0000 0000 0000 0000 000000
2017-02-24 04:31:32,0.39,1.49,0.00,19.20,22.22,26.57,14.80,47.42,1022.44,2047.74,2954.40,2717.59,3112.01,599.81,607.05,5.78,0000 0000 0000 0000 000000
2017-02-24 04:36:33,0.31,1.51,0.00,19.22,22.23,26.60,14.76,47.29,1022.33,2047.24,2947.68,2712.89,3106.70,600.09,607.22,5.83,0000 0000 0000 0000 000000
2017-02-24 04:41:35,0.32,1.52,0.00,19.24,22.25,26.61,14.78,47.39,1022.15,2047.10,2941.54,2708.57,3101.70,599.73,606.71,5.88,0000 0000 0000 0000 000000
2017-02-24 04:46:36,0.33,1.54,0.00,19.24,22.27,26.63,14.85,47.41,1022.18,2047.04,2935.55,2704.39,3096.87,600.06,606.97,5.93,0000 0000 0000 0000 000000
2017-02-24 04:51:37,0.32,1.56,0.00,19.29,22.29,26.64,14.87,47.39,1022.07,2047.02,2929.68,2700.21,3092.11,600.10,606.91,5.98,0000 0000 0000 0000 000000
2017-02-24 04:56:38,0.32,1.57,0.00,19.32,22.31,26.64,14.77,47.32,1022.00,2047.01,2923.87,2696.16,3087.53,599.79,606.51,6.03,0000 0000 0000 0000 000000
2017-02-24 05:01:39,0.32,1.59,0.00,19.36,22.32,26.66,14.81,47.27,1022.12,2047.00,2918.20,2692.20,3083.00,600.22,606.95,6.08,0000 0000 0000 0000 000000
2017-02-24 05:06:41,0.31,1.60,0.00,19.38,22.34,26.70,14.85,47.32,1022.09,2047.00,2912.55,2688.30,3078.51,600.22,606.91,6.13,0000 0000 0000 0000 000000
2017-02-24 05:11:42,0.32,1.62,0.00,19.39,22.37,26.71,14.80,47.35,1022.21,2047.00,2906.84,2684.41,3073.99,600.31,607.10,6.18,0000 0000 0000 0000 000000
2017-02-24 05:16:43,0.33,1.64,0.00,19.42,22.38,26.73,14.78,47.43,1022.10,2047.00,2900.96,2680.34,3069.47,600.06,606.65,6.23,0000 0000 0000 0000 000000
2017-02-24 05:21:45,0.33,1.65,0.00,19.43,22.39,26.75,14.77,47.46,1022.00,2047.00,2895.06,2676.21,3064.75,600.12,606.64,6.28,0000 0000 0000 0000 000000
2017-02-24 05:26:46,0.33,1.67,0.00,19.45,22.42,26.77,14.77,47.52,1022.01,2047.00,2889.21,2672.11,3060.03,600.14,606.50,6.33,0000 0000 0000 0000 000000
2017-02-24 05:31:47,0.35,1.69,0.00,19.46,22.43,26.78,14.77,47.42,1022.04,2046.99,2883.02,2667.84,3055.15,600.09,606.60,6.38,0000 0000 0000 0000 000000
2017-02-24 05:36:49,0.35,1.71,0.00,19.49,22.45,26.80,14.75,47.39,1022.12,2046.97,2877.04,2663.56,3050.34,599.82,606.35,6.43,0000 0000 0000 0000 000000
2017-02-24 05:41:50,0.35,1.72,0.00,19.50,22.47,26.83,14.82,47.38,1022.31,2046.96,2870.78,2659.17,3045.34,599.99,606.44,6.48,0000 0000 0000 0000 000000
2017-02-24 05:46:51,0.34,1.74,0.00,19.52,22.49,26.83,14.76,47.36,1022.30,2046.95,2864.62,2654.95,3040.56,600.01,606.55,6.53,0000 0000 0000 0000 000000
2017-02-24 05:51:52,0.31,1.76,0.00,19.54,22.52,26.86,14.73,47.37,1022.21,2046.74,2858.47,2650.62,3035.65,600.09,606.51,6.58,0000 0000 0000 0000 000000
2017-02-24 05:56:54,0.30,1.78,0.00,19.56,22.53,26.88,14.73,47.46,1022.02,2046.28,2852.49,2646.50,3030.94,599.91,606.22,6.63,0000 0000 0000 0000 000000
2017-02-24 06:01:55,0.28,1.79,0.00,19.58,22.56,26.92,14.79,47.48,1022.04,2046.19,2847.14,2642.81,3026.79,599.93,606.15,6.68,0000 0000 0000 0000 000000
2017-02-24 06:06:56,0.26,1.81,0.00,19.62,22.58,26.92,14.81,47.37,1022.04,2046.05,2842.38,2639.51,3023.03,600.09,606.30,6.73,0000 0000 0000 0000 000000
2017-02-24 06:11:57,0.23,1.82,0.00,19.64,22.60,26.94,14.74,47.33,1022.00,2046.03,2838.22,2636.56,3019.67,600.33,606.42,6.78,0000 0000 0000 0000 000000
2017-02-24 06:16:59,0.22,1.83,0.00,19.64,22.62,26.97,14.63,47.39,1022.06,2046.01,2834.40,2633.81,3016.48,599.76,605.94,6.84,0000 0000 0000 0000 000000
2017-02-24 06:22:00,0.22,1.84,0.00,19.68,22.64,26.99,14.76,47.42,1022.13,2046.00,2830.70,2631.16,3013.40,600.10,606.09,6.89,0000 0000 0000 0000 000000
2017-02-24 06:27:01,0.24,1.85,0.00,19.68,22.66,27.02,14.85,47.39,1022.27,2046.00,2826.82,2628.32,3010.14,600.24,606.37,6.94,0000 0000 0000 0000 000000
2017-02-24 06:32:02,0.30,1.87,0.00,19.72,22.68,27.02,14.80,47.56,1022.19,2045.99,2821.81,2624.80,3006.22,600.17,606.14,6.99,0000 0000 0000 0000 000000
2017-02-24 06:37:03,0.30,1.88,0.00,19.72,22.69,27.04,14.75,47.53,1022.09,2045.97,2816.45,2621.13,3001.85,599.71,605.68,7.04,0000 0000 0000 0000 000000
2017-02-24 06:42:05,0.31,1.90,0.00,19.75,22.72,27.07,14.65,47.42,1022.07,2045.95,2811.15,2617.34,2997.45,599.67,605.58,7.09,0000 0000 0000 0000 000000
2017-02-24 06:47:06,0.29,1.91,0.00,19.72,22.73,27.09,14.85,47.36,1022.03,2045.89,2806.12,2613.81,2993.41,599.99,605.93,7.14,0000 0000 0000 0000 000000
2017-02-24 06:52:07,0.25,1.93,0.00,19.76,22.76,27.11,14.79,47.28,1022.09,2045.61,2801.31,2610.42,2989.57,600.42,606.26,7.19,0000 0000 0000 0000 000000
2017-02-24 06:57:08,0.25,1.94,0.00,19.77,22.78,27.13,14.69,47.12,1022.20,2045.18,2796.48,2607.00,2985.61,599.64,605.55,7.24,0000 0000 0000 0000 000000
2017-02-24 07:02:10,0.28,1.95,0.00,19.77,22.80,27.14,14.80,47.15,1022.27,2045.07,2791.61,2603.56,2981.71,600.04,606.00,7.29,0000 0000 0000 0000 000000
2017-02-24 07:07:11,0.25,1.97,0.00,19.78,22.82,27.17,14.79,47.18,1022.06,2045.01,2787.15,2600.39,2978.08,600.11,605.79,7.34,0000 0000 0000 0000 000000
2017-02-24 07:12:12,0.24,1.98,0.00,19.81,22.84,27.19,14.78,47.28,1022.20,2045.01,2783.10,2597.48,2974.73,599.88,605.73,7.39,0000 0000 0000 0000 000000
2017-02-24 07:17:13,0.24,1.99,0.00,19.82,22.86,27.20,14.77,47.05,1022.11,2045.00,2778.97,2594.59,2971.37,600.39,606.09,7.44,0000 0000 0000 0000 000000
2017-02-24 07:22:15,0.23,2.00,0.00,19.82,22.88,27.22,14.81,47.17,1022.06,2045.00,2774.95,2591.74,2968.10,600.21,605.95,7.49,0000 0000 0000 0000 000000
2017-02-24 07:27:16,0.23,2.01,0.00,19.83,22.89,27.23,14.78,47.22,1022.01,2044.99,2771.00,2588.95,2964.92,600.11,605.78,7.54,0000 0000 0000 0000 000000
2017-02-24 07:32:17,0.22,2.03,0.00,19.85,22.91,27.25,14.71,47.18,1022.02,2044.98,2767.32,2586.27,2961.91,600.21,605.91,7.59,0000 0000 0000 0000 000000
2017-02-24 07:37:19,0.20,2.04,0.00,19.89,22.93,27.27,14.80,47.10,1022.11,2044.97,2763.89,2583.81,2959.08,600.04,605.65,7.64,0000 0000 0000 0000 000000
2017-02-24 07:42:20,0.22,2.05,0.00,19.89,22.94,27.28,14.82,47.08,1022.03,2044.96,2760.41,2581.26,2956.14,600.31,605.88,7.69,0000 0000 0000 0000 000000
2017-02-24 07:47:22,0.18,2.06,0.00,19.89,22.97,27.29,14.78,47.17,1022.01,2044.81,2757.03,2578.85,2953.31,600.00,605.60,7.74,0000 0000 0000 0000 000000
2017-02-24 07:52:23,0.15,2.07,0.00,19.88,22.98,27.32,14.82,47.06,1022.01,2044.60,2753.96,2576.55,2950.71,600.29,605.87,7.79,0000 0000 0000 0000 000000
2017-02-24 07:57:24,0.22,2.08,0.00,19.88,22.99,27.34,14.71,46.97,1022.01,2044.37,2750.63,2574.00,2947.73,599.70,605.29,7.84,0000 0000 0000 0000 000000
2017-02-24 08:02:25,0.23,2.09,0.00,19.89,23.02,27.35,14.75,47.12,1022.04,2044.08,2746.55,2571.00,2944.29,600.28,605.83,7.89,0000 0000 0000 0000 000000
2017-02-24 08:07:27,0.27,2.10,0.00,19.91,23.02,27.36,14.71,47.16,1022.16,2044.02,2741.98,2567.78,2940.63,599.91,605.42,7.94,0000 0000 0000 0000 000000
2017-02-24 08:12:28,0.29,2.11,0.00,19.90,23.04,27.38,14.66,47.12,1022.40,2044.01,2737.19,2564.40,2936.74,599.75,605.50,7.99,0000 0000 0000 0000 000000
2017-02-24 08:17:30,0.29,2.13,0.00,19.91,23.05,27.39,14.76,47.17,1022.43,2044.00,2732.40,2561.02,2932.87,600.09,605.81,8.04,0000 0000 0000 0000 000000
2017-02-24 08:22:31,0.29,2.14,0.00,19.92,23.07,27.38,14.77,47.10,1022.35,2044.00,2727.60,2557.81,2928.97,600.05,605.69,8.09,0000 0000 0000 0000 000000
2017-02-24 08:27:32,0.30,2.16,0.00,19.93,23.07,27.40,14.83,47.08,1022.26,2044.00,2722.70,2554.35,2924.99,600.24,605.83,8.14,0000 0000 0000 0000 000000
2017-02-24 08:32:33,0.29,2.17,0.00,19.95,23.09,27.41,14.74,47.09,1022.26,2044.00,2717.86,2551.00,2921.08,600.08,605.67,8.19,0000 0000 0000 0000 000000
2017-02-24 08:37:35,0.29,2.19,0.00,19.94,23.09,27.42,14.70,47.07,1022.12,2044.00,2713.04,2547.57,2917.22,599.88,605.48,8.24,0000 0000 0000 0000 000000
2017-02-24 08:42:36,0.28,2.20,0.00,19.96,23.11,27.43,14.71,47.13,1022.15,2043.99,2708.39,2544.30,2913.47,599.84,605.39,8.29,0000 0000 0000 0000 000000
2017-02-24 08:47:38,0.28,2.22,0.00,19.97,23.12,27.44,14.72,47.05,1022.13,2043.97,2703.81,2541.03,2909.70,600.09,605.53,8.34,0000 0000 0000 0000 000000
2017-02-24 08:52:39,0.28,2.23,0.00,19.95,23.12,27.44,14.82,47.00,1022.09,2043.96,2699.30,2537.84,2906.03,600.18,605.66,8.39,0000 0000 0000 0000 000000
2017-02-24 08:57:40,0.26,2.25,0.00,19.96,23.14,27.46,14.76,47.14,1022.04,2043.95,2694.94,2534.77,2902.51,599.94,605.40,8.44,0000 0000 0000 0000 000000
2017-02-24 09:02:41,0.28,2.26,0.00,19.97,23.14,27.44,14.75,47.11,1022.07,2043.92,2690.51,2531.60,2898.90,600.07,605.50,8.49,0000 0000 0000 0000 000000
2017-02-24 09:07:43,0.26,2.28,0.00,19.97,23.15,27.49,14.71,47.02,1022.09,2043.92,2686.25,2528.58,2895.40,599.91,605.30,8.54,0000 0000 0000 0000 000000
2017-02-24 09:12:44,0.26,2.29,0.00,19.97,23.17,27.48,14.79,47.09,1022.07,2043.80,2682.02,2525.47,2891.89,599.94,605.42,8.59,0000 0000 0000 0000 000000
2017-02-24 09:17:46,0.23,2.30,0.00,19.99,23.17,27.50,14.74,47.11,1022.04,2043.52,2677.81,2522.48,2888.42,599.82,605.29,8.64,0000 0000 0000 0000 000000
2017-02-24 09:22:47,0.23,2.31,0.00,20.00,23.17,27.49,14.76,47.13,1022.01,2043.38,2673.80,2519.67,2885.24,600.11,605.43,8.69,0000 0000 0000 0000 000000
2017-02-24 09:27:48,0.19,2.32,0.00,20.01,23.19,27.50,14.78,47.06,1022.00,2043.23,2670.49,2517.29,2882.57,600.36,605.66,8.74,0000 0000 0000 0000 000000
2017-02-24 09:32:50,0.19,2.33,0.00,20.01,23.19,27.50,14.79,47.10,1022.03,2043.14,2667.33,2515.04,2880.07,600.42,605.74,8.79,0000 0000 0000 0000 000000
2017-02-24 09:37:51,0.19,2.34,0.00,20.01,23.19,27.52,14.80,47.17,1022.04,2043.09,2664.29,2512.80,2877.63,600.09,605.44,8.84,0000 0000 0000 0000 000000
2017-02-24 09:42:52,0.18,2.35,0.00,19.99,23.21,27.52,14.76,47.13,1022.06,2043.16,2661.53,2510.73,2875.28,600.26,605.74,8.89,0000 0000 0000 0000 000000
2017-02-24 09:47:53,0.18,2.36,0.00,20.00,23.22,27.53,14.76,47.28,1022.01,2043.05,2658.68,2508.66,2872.87,599.87,605.20,8.94,0000 0000 0000 0000 000000
2017-02-24 09:52:55,0.18,2.37,0.00,20.02,23.22,27.54,14.78,47.65,1022.00,2043.04,2655.90,2506.55,2870.46,599.95,605.18,8.99,0000 0000 0000 0000 000000
2017-02-24 09:57:56,0.18,2.38,0.00,20.01,23.22,27.54,14.76,47.62,1022.00,2043.02,2653.05,2504.46,2868.00,599.77,605.02,9.04,0000 0000 0000 0000 000000
2017-02-24 10:02:58,0.22,2.39,0.00,19.99,23.22,27.53,14.87,47.37,1021.99,2043.01,2649.81,2502.11,2865.22,600.09,605.42,9.09,0000 0000 0000 0000 000000
2017-02-24 10:07:59,0.25,2.40,0.00,20.01,23.24,27.52,14.78,47.15,1022.02,2043.00,2646.00,2499.35,2862.04,600.03,605.35,9.15,0000 0000 0000 0000 000000
2017-02-24 10:13:00,0.27,2.42,0.00,20.04,23.24,27.53,14.71,47.17,1022.01,2043.00,2641.87,2496.44,2858.68,599.77,604.94,9.20,0000 0000 0000 0000 000000
2017-02-24 10:18:01,0.28,2.43,0.00,20.04,23.25,27.55,14.80,47.16,1021.99,2043.00,2637.44,2493.50,2855.13,599.82,605.03,9.25,0000 0000 0000 0000 000000
2017-02-24 10:23:02,0.28,2.44,0.00,20.04,23.26,27.55,14.75,47.09,1021.99,2043.00,2632.91,2490.40,2851.53,600.29,605.55,9.30,0000 0000 0000 0000 000000
2017-02-24 10:28:04,0.29,2.46,0.00,20.04,23.27,27.58,14.71,46.99,1022.00,2043.00,2628.37,2487.24,2847.89,599.69,604.93,9.35,0000 0000 0000 0000 000000
2017-02-24 10:33:05,0.26,2.47,0.00,20.07,23.27,27.56,14.72,46.96,1021.99,2042.99,2624.13,2484.28,2844.47,599.86,605.05,9.40,0000 0000 0000 0000 000000
2017-02-24 10:38:06,0.26,2.49,0.00,20.06,23.27,27.57,14.72,46.91,1021.99,2042.98,2620.13,2481.42,2841.12,600.14,605.33,9.45,0000 0000 0000 0000 000000
2017-02-24 10:43:07,0.27,2.50,0.00,20.04,23.29,27.56,14.76,46.96,1021.99,2042.99,2615.91,2478.53,2837.78,600.12,605.29,9.50,0000 0000 0000 0000 000000
2017-02-24 10:48:08,0.29,2.51,0.00,20.05,23.29,27.58,14.83,46.92,1021.98,2042.98,2611.39,2475.38,2834.23,600.16,605.35,9.55,0000 0000 0000 0000 000000
2017-02-24 10:53:09,0.30,2.53,0.00,20.04,23.29,27.57,14.76,46.92,1021.99,2042.97,2606.72,2472.22,2830.66,600.27,605.50,9.60,0000 0000 0000 0000 000000
2017-02-24 10:58:10,0.28,2.54,0.00,20.04,23.29,27.58,14.73,47.01,1021.98,2042.94,2602.27,2469.18,2827.18,599.78,605.10,9.65,0000 0000 0000 0000 000000
2017-02-24 11:03:12,0.28,2.56,0.00,20.04,23.29,27.58,14.67,46.91,1021.97,2042.88,2597.68,2466.03,2823.58,599.79,605.02,9.70,0000 0000 0000 0000 000000
2017-02-24 11:08:13,0.28,2.57,0.00,20.04,23.29,27.57,14.69,46.95,1021.95,2042.78,2593.16,2462.96,2820.03,599.90,605.11,9.75,0000 0000 0000 0000 000000
2017-02-24 11:13:14,0.29,2.59,0.00,20.04,23.29,27.56,14.74,46.87,1021.86,2042.77,2588.75,2459.94,2816.68,600.10,605.26,9.80,0000 0000 0000 0000 000000
2017-02-24 11:18:15,0.26,2.60,0.00,20.02,23.29,27.58,14.71,46.88,1021.67,2042.80,2584.62,2457.07,2813.51,599.95,604.99,9.85,0000 0000 0000 0000 000000
2017-02-24 11:23:17,0.25,2.61,0.00,20.04,23.29,27.57,14.66,46.92,1021.53,2042.82,2580.75,2454.37,2810.42,599.85,604.75,9.90,0000 0000 0000 0000 000000
2017-02-24 11:28:18,0.21,2.63,0.00,20.04,23.29,27.58,14.78,46.99,1021.53,2042.58,2576.90,2451.66,2807.36,600.42,605.39,9.95,0000 0000 0000 0000 000000
2017-02-24 11:33:19,0.27,2.64,0.00,20.02,23.29,27.56,14.67,46.99,1021.52,2042.62,2573.19,2449.12,2804.45,599.83,604.86,10.00,0000 0000 0000 0000 000000
2017-02-24 11:38:21,0.23,2.65,0.00,20.01,23.29,27.54,14.74,46.98,1021.50,2042.63,2569.63,2446.59,2801.63,600.21,605.22,10.05,0000 0000 0000 0000 000000
2017-02-24 11:43:22,0.23,2.66,0.00,20.00,23.30,27.53,14.75,46.95,1021.50,2042.70,2566.25,2444.21,2798.89,599.88,604.93,10.10,0000 0000 0000 0000 000000
2017-02-24 11:48:23,0.21,2.67,0.00,19.99,23.30,27.52,14.74,47.07,1021.50,2042.64,2562.95,2441.83,2796.19,600.21,605.23,10.15,0000 0000 0000 0000 000000
2017-02-24 11:53:24,0.24,2.68,0.00,20.00,23.30,27.55,14.78,47.10,1021.49,2042.77,2559.57,2439.39,2793.39,600.09,605.10,10.20,0000 0000 0000 0000 000000
2017-02-24 11:58:26,0.26,2.70,0.00,19.95,23.30,27.54,14.75,47.03,1021.50,2042.80,2555.90,2436.68,2790.32,599.80,605.01,10.25,0000 0000 0000 0000 000000
2017-02-24 12:03:27,0.24,2.71,0.00,19.97,23.30,27.53,14.76,46.99,1021.49,2042.61,2551.94,2433.93,2787.16,600.10,605.21,10.30,0000 0000 0000 0000 000000
2017-02-24 12:08:28,0.24,2.72,0.00,19.97,23.30,27.53,14.71,47.16,1021.46,2042.60,2548.09,2431.25,2783.98,600.20,605.27,10.35,0000 0000 0000 0000 000000
2017-02-24 12:13:29,0.23,2.73,0.00,19.96,23.30,27.51,14.78,47.04,1021.39,2042.35,2544.27,2428.54,2780.77,600.27,605.37,10.40,0000 0000 0000 0000 000000
2017-02-24 12:18:31,0.26,2.75,0.00,19.96,23.30,27.51,14.74,47.01,1021.25,2042.20,2540.40,2425.76,2777.57,599.44,604.40,10.45,0000 0000 0000 0000 000000
2017-02-24 12:23:32,0.27,2.76,0.00,19.96,23.30,27.51,14.68,46.94,1021.07,2042.29,2536.50,2423.03,2774.46,600.21,605.20,10.50,0000 0000 0000 0000 000000
2017-02-24 12:28:33,0.23,2.77,0.00,19.96,23.30,27.53,14.74,47.00,1021.03,2042.28,2532.93,2420.43,2771.52,600.21,605.03,10.55,0000 0000 0000 0000 000000
2017-02-24 12:33:34,0.24,2.79,0.00,19.94,23.30,27.51,14.84,47.13,1021.01,2042.28,2529.51,2417.90,2768.57,600.00,604.88,10.60,0000 0000 0000 0000 000000
2017-02-24 12:38:36,0.25,2.80,0.00,19.89,23.30,27.52,14.73,47.13,1021.01,2042.28,2525.99,2415.39,2765.67,599.96,604.95,10.65,0000 0000 0000 0000 000000
2017-02-24 12:43:37,0.23,2.81,0.00,19.91,23.29,27.50,14.73,47.02,1021.01,2042.31,2522.57,2412.93,2762.86,600.21,605.01,10.70,0000 0000 0000 0000 000000
2017-02-24 12:48:39,0.23,2.82,0.00,19.93,23.29,27.51,14.76,47.09,1021.01,2042.28,2519.10,2410.46,2760.00,599.88,604.81,10.75,0000 0000 0000 0000 000000
2017-02-24 12:53:40,0.22,2.83,0.00,19.93,23.29,27.49,14.72,47.13,1021.01,2042.16,2515.55,2407.95,2757.07,599.93,604.80,10.80,0000 0000 0000 0000 000000
2017-02-24 12:58:41,0.25,2.85,0.00,19.90,23.29,27.48,14.72,47.11,1021.01,2042.15,2511.96,2405.37,2754.11,599.94,605.00,10.85,0000 0000 0000 0000 000000